FW9446 Weather Reports


time (UTC)temp
C
wind
direction
speed
KPH
gust
KPH
rain 1hr
cm
rain 24hr
cm
rain mn
cm
humidity
%
barometer
mb
20260504081558 5 0 0.0 0.0 0.00 0.00 0.00 93 1017.6
20260504081058 5 0 0.0 0.0 0.00 0.00 0.00 93 1017.4
20260504080558 5 0 0.0 0.0 0.00 0.00 0.00 93 1017.4
20260504070111 6 0 0.0 0.0 0.00 0.00 0.00 91 1017.6
20260504060104 7 0 0.0 0.0 0.00 0.00 0.00 89 1018.4
20260504050558 8 0 0.0 0.0 0.00 0.00 0.00 87 1018.5
20260504050104 8 0 0.0 0.0 0.00 0.00 0.00 86 1018.5
20260504045559 8 0 0.0 0.0 0.00 0.00 0.00 86 1018.6
20260504045059 8 0 0.0 0.0 0.00 0.00 0.00 86 1018.5
20260504044603 8 0 0.0 0.0 0.00 0.00 0.00 85 1018.4
20260504044059 8 0 0.0 0.0 0.00 0.00 0.00 85 1018.4
20260504043634 8 0 0.0 0.0 0.00 0.00 0.00 84 1018.5
20260504043104 8 0 0.0 0.0 0.00 0.00 0.00 84 1018.6
20260504042558 9 0 0.0 0.0 0.00 0.00 0.00 83 1018.6
20260504042056 9 0 0.0 0.0 0.00 0.00 0.00 82 1018.6
20260504041602 9 0 0.0 0.0 0.00 0.00 0.00 83 1018.6
20260504041058 9 0 0.0 0.0 0.00 0.00 0.00 83 1018.5
20260504040558 10 0 0.0 0.0 0.00 0.00 0.00 83 1018.5
20260504040137 10 0 0.0 0.0 0.00 0.00 0.00 82 1018.5
20260504035558 10 0 0.0 0.0 0.00 0.00 0.00 82 1018.5
20260504035100 10 0 0.0 0.0 0.00 0.00 0.00 82 1018.5
20260504034602 10 0 0.0 0.0 0.00 0.00 0.00 83 1018.4
20260504034058 10 0 0.0 0.0 0.00 0.00 0.00 83 1018.4
20260504033558 10 0 0.0 0.0 0.00 0.00 0.00 83 1018.4
20260504033056 10 0 0.0 0.0 0.00 0.00 0.00 83 1018.5
20260504032558 10 0 0.0 1.6 0.00 0.00 0.00 83 1018.5
20260504032102 10 0 0.0 1.6 0.00 0.00 0.00 83 1018.4
20260504031614 10 0 0.0 1.6 0.00 0.00 0.00 84 1018.4
20260504031057 10 0 0.0 0.0 0.00 0.00 0.00 83 1018.4
20260504030557 10 0 0.0 0.0 0.00 0.00 0.00 83 1018.3
20260504030057 10 0 0.0 0.0 0.00 0.00 0.00 83 1018.1
20260504025600 10 0 0.0 0.0 0.00 0.00 0.00 83 1018.1
20260504025059 10 0 0.0 0.0 0.00 0.00 0.00 83 1018.0
20260504024602 10 0 0.0 0.0 0.00 0.00 0.00 83 1018.1
20260504024058 10 0 0.0 0.0 0.00 0.00 0.00 83 1018.1
20260504023558 10 0 0.0 0.0 0.00 0.00 0.00 82 1018.2
20260504023056 10 0 0.0 0.0 0.00 0.00 0.00 83 1018.2
20260504022558 10 0 0.0 0.0 0.00 0.00 0.00 82 1018.2
20260504022058 10 0 0.0 0.0 0.00 0.00 0.00 82 1018.1
20260504021558 10 0 0.0 0.0 0.00 0.00 0.00 81 1018.1
20260504021058 11 0 0.0 0.0 0.00 0.00 0.00 81 1018.2
20260504020600 11 0 0.0 0.0 0.00 0.00 0.00 81 1017.9
20260504020110 11 0 0.0 0.0 0.00 0.00 0.00 80 1018.0
20260504015559 11 0 0.0 0.0 0.00 0.00 0.00 80 1017.8
20260504015058 11 0 0.0 0.0 0.00 0.00 0.00 79 1017.9
20260504014557 11 0 0.0 0.0 0.00 0.00 0.00 79 1017.7
20260504014058 11 0 0.0 0.0 0.00 0.00 0.00 79 1017.8
20260504013558 11 0 0.0 0.0 0.00 0.00 0.00 78 1017.7
20260504013058 11 0 0.0 0.0 0.00 0.00 0.00 77 1017.6
20260504012601 12 0 0.0 0.0 0.00 0.00 0.00 78 1017.5
20260504012059 12 0 0.0 0.0 0.00 0.00 0.00 77 1017.5
20260504011556 12 0 0.0 0.0 0.00 0.00 0.00 76 1017.5
20260504011059 12 0 0.0 0.0 0.00 0.00 0.00 75 1017.5
20260504010558 12 0 0.0 0.0 0.00 0.00 0.00 75 1017.6
20260504010057 12 0 0.0 0.0 0.00 0.00 0.00 74 1017.4
20260504005558 12 0 0.0 0.0 0.00 0.00 0.00 73 1017.4
20260504005058 13 0 0.0 0.0 0.00 0.00 0.00 72 1017.4
20260504004558 13 0 0.0 0.0 0.00 0.00 0.00 71 1017.3
20260504004058 13 0 0.0 0.0 0.00 0.00 0.00 71 1017.4
20260504003558 13 0 0.0 0.0 0.00 0.00 0.00 69 1017.4
20260504003057 14 0 0.0 0.0 0.00 0.00 0.00 68 1017.4
20260504002558 14 0 0.0 0.0 0.00 0.00 0.00 67 1017.3
20260504002058 15 0 0.0 0.0 0.00 0.00 0.00 66 1017.2
20260504001601 15 0 0.0 0.0 0.00 0.00 0.00 64 1017.2
20260504001100 15 0 0.0 0.0 0.00 0.00 0.00 63 1017.2
20260504000557 15 0 0.0 0.0 0.00 0.00 0.00 62 1017.2
20260504000101 16 0 0.0 1.6 0.00 0.00 0.00 62 1017.3
20260503235558 16 0 0.0 1.6 0.00 0.00 0.00 60 1017.2
20260503235102 16 0 0.0 0.0 0.00 0.00 0.00 58 1017.3
20260503234624 17 0 0.0 4.8 0.00 0.00 0.00 56 1017.2
20260503234103 17 0 0.0 4.8 0.00 0.00 0.00 54 1017.2
20260503233558 17 0 0.0 1.6 0.00 0.00 0.00 54 1017.3
20260503233103 17 0 0.0 0.0 0.00 0.00 0.00 52 1017.2
20260503232558 18 0 0.0 0.0 0.00 0.00 0.00 55 1017.2
20260503232058 18 0 0.0 3.2 0.00 0.00 0.00 52 1017.3
20260503231557 18 0 0.0 4.8 0.00 0.00 0.00 49 1017.3
20260503231058 18 0 0.0 4.8 0.00 0.00 0.00 47 1017.3
20260503230600 18 0 0.0 4.8 0.00 0.00 0.00 49 1017.3
20260503230058 18 0 0.0 4.8 0.00 0.00 0.00 45 1017.3
20260503225557 18 0 0.0 4.8 0.00 0.00 0.00 45 1017.4
20260503225058 18 0 0.0 4.8 0.00 0.00 0.00 44 1017.5
20260503224557 19 237 0.0 8.0 0.00 0.00 0.00 42 1017.5
20260503224058 19 0 0.0 9.7 0.00 0.00 0.00 42 1017.5
20260503223559 19 0 1.6 9.7 0.00 0.00 0.00 42 1017.6
20260503223059 19 140 0.0 8.0 0.00 0.00 0.00 42 1017.6
20260503222558 19 0 0.0 8.0 0.00 0.00 0.00 41 1017.6
20260503222058 19 0 0.0 8.0 0.00 0.00 0.00 42 1017.7
20260503221601 20 0 0.0 6.4 0.00 0.00 0.00 41 1017.6
20260503221058 20 0 1.6 6.4 0.00 0.00 0.00 39 1017.6
20260503220558 20 0 1.6 6.4 0.00 0.00 0.00 37 1017.6
20260503220056 20 0 0.0 11.3 0.00 0.00 0.00 39 1017.7
20260503215557 20 0 1.6 11.3 0.00 0.00 0.00 38 1017.7
20260503215058 20 232 1.6 8.0 0.00 0.00 0.00 38 1017.7
20260503214556 21 0 0.0 8.0 0.00 0.00 0.00 37 1017.7
20260503214058 21 174 0.0 8.0 0.00 0.00 0.00 39 1017.7
20260503213558 21 0 0.0 6.4 0.00 0.00 0.00 35 1017.8
20260503213059 21 129 0.0 6.4 0.00 0.00 0.00 37 1017.9
20260503212558 21 0 0.0 6.4 0.00 0.00 0.00 35 1017.9
20260503212058 21 61 0.0 6.4 0.00 0.00 0.00 36 1018.1
20260503211559 21 0 0.0 6.4 0.00 0.00 0.00 33 1018.1
20260503211057 21 257 0.0 4.8 0.00 0.00 0.00 36 1018.2
20260503210558 21 346 0.0 4.8 0.00 0.00 0.00 38 1018.3
20260503210100 21 302 0.0 6.4 0.00 0.00 0.00 38 1018.3
20260503205600 21 108 0.0 9.7 0.00 0.00 0.00 40 1018.4
20260503205058 21 55 0.0 9.7 0.00 0.00 0.00 38 1018.5
20260503204559 21 248 1.6 9.7 0.00 0.00 0.00 38 1018.5
20260503204058 21 0 1.6 6.4 0.00 0.00 0.00 44 1018.5
20260503203558 21 129 0.0 6.4 0.00 0.00 0.00 44 1018.8
20260503203059 21 229 0.0 9.7 0.00 0.00 0.00 46 1018.7
20260503202558 20 84 0.0 9.7 0.00 0.00 0.00 43 1018.8
20260503202058 20 0 0.0 4.8 0.00 0.00 0.00 40 1018.9
20260503201558 20 0 0.0 4.8 0.00 0.00 0.00 44 1018.9
20260503201059 20 266 0.0 8.0 0.00 0.00 0.00 42 1019.1
20260503200558 20 0 1.6 8.0 0.00 0.00 0.00 42 1019.2
20260503200058 20 0 0.0 6.4 0.00 0.00 0.00 47 1019.1
20260503195600 20 309 0.0 11.3 0.00 0.00 0.00 46 1019.3
20260503195057 20 0 3.2 11.3 0.00 0.00 0.00 48 1019.4
20260503194600 20 173 0.0 9.7 0.00 0.00 0.00 43 1019.5
20260503194058 20 0 3.2 9.7 0.00 0.00 0.00 44 1019.6
20260503193558 20 71 0.0 6.4 0.00 0.00 0.00 42 1019.7
20260503193059 19 0 0.0 8.0 0.00 0.00 0.00 42 1019.8
20260503192558 20 60 1.6 8.0 0.00 0.00 0.00 43 1019.8
20260503192057 19 0 0.0 8.0 0.00 0.00 0.00 44 1020.0
20260503191600 19 339 1.6 8.0 0.00 0.00 0.00 41 1020.1
20260503191100 18 0 0.0 6.4 0.00 0.00 0.00 46 1020.1
20260503190559 18 0 1.6 6.4 0.00 0.00 0.00 47 1020.2
20260503190056 18 310 1.6 6.4 0.00 0.00 0.00 43 1020.4
20260503185558 18 236 0.0 4.8 0.00 0.00 0.00 51 1020.3
20260503185101 18 216 0.0 4.8 0.00 0.00 0.00 46 1020.4
20260503184559 18 0 0.0 8.0 0.00 0.00 0.00 45 1020.5
20260503184058 18 196 0.0 9.7 0.00 0.00 0.00 48 1020.5
20260503183558 18 156 1.6 9.7 0.00 0.00 0.00 42 1020.4
20260503183100 18 5 1.6 9.7 0.00 0.00 0.00 46 1020.5
20260503182557 18 225 1.6 8.0 0.00 0.00 0.00 45 1020.5
20260503182058 18 107 0.0 6.4 0.00 0.00 0.00 43 1020.7
20260503181558 18 0 0.0 6.4 0.00 0.00 0.00 43 1020.7
20260503181058 17 0 1.6 6.4 0.00 0.00 0.00 48 1020.7
20260503180558 17 219 0.0 6.4 0.00 0.00 0.00 45 1020.8
20260503180105 17 0 0.0 6.4 0.00 0.00 0.00 46 1020.8
20260503175558 17 246 1.6 6.4 0.00 0.00 0.00 45 1020.9
20260503175058 17 193 0.0 4.8 0.00 0.00 0.00 50 1020.9
20260503174601 17 84 0.0 4.8 0.00 0.00 0.00 47 1021.0
20260503174058 17 155 0.0 8.0 0.00 0.00 0.00 51 1021.1
20260503173558 16 74 1.6 12.9 0.00 0.00 0.00 49 1021.3
20260503173109 16 159 1.6 12.9 0.00 0.00 0.00 50 1021.3
20260503172600 16 150 1.6 8.0 0.00 0.00 0.00 49 1021.3
20260503172058 16 0 1.6 6.4 0.00 0.00 0.00 50 1021.4
20260503171559 16 211 0.0 4.8 0.00 0.00 0.00 52 1021.3
20260503171058 16 192 0.0 11.3 0.00 0.00 0.00 50 1021.5
20260503170558 16 0 3.2 11.3 0.00 0.00 0.00 50 1021.5
20260503150557 13 0 0.0 4.8 0.00 0.00 0.00 64 1022.4
20260503140109 11 0 0.0 6.4 0.00 0.00 0.00 81 1022.3
20260503131058 7 0 0.0 1.6 0.00 0.00 0.00 96 1022.1
20260503130613 7 0 0.0 3.2 0.00 0.00 0.00 97 1022.1
20260503110558 3 0 0.0 0.0 0.00 0.00 0.00 95 1021.3
20260503110110 3 0 0.0 0.0 0.00 0.00 0.00 95 1021.3